Wind_Speed
2 3 3 3 3 3 2 2 2 1 1 1 1 1 1 1 2 1 1 1 1 1 2 2 2 2 2 2 3 3 3 3 3 3 3 2 1 0 0 1 2 3 4 4 5 6 7 7 8
3 3 3 3 3 3 3 3 2 2 2 2 1 1 0 1 1 0 1 1 1 1 1 1 1 2 2 2 2 2 3 2 2 2 2 2 1 1 1 1 2 3 4 4 5 6 7 7 8
3 3 3 3 4 3 3 3 3 2 2 1 1 1 1 1 1 1 1 0 0 0 0 1 1 2 2 2 2 2 3 2 2 2 3 2 2 1 2 2 2 3 3 4 4 5 6 7 8
3 4 4 4 4 3 3 4 3 2 2 1 1 2 2 2 2 2 1 0 0 0 0 1 1 2 2 2 2 2 3 3 2 2 3 2 2 2 2 2 3 3 3 4 4 5 6 7 8
4 4 4 4 4 4 4 4 4 2 2 2 2 2 2 2 2 2 2 1 1 1 1 0 1 2 2 2 2 2 3 3 2 2 3 3 3 2 2 2 2 3 3 4 4 5 6 7 8
4 4 4 5 5 5 5 5 4 3 3 2 3 3 2 2 3 3 3 2 2 2 1 1 1 2 2 2 2 2 2 3 3 3 3 3 3 2 2 2 2 2 3 4 4 5 5 7 8
4 4 5 5 6 6 6 5 5 4 3 3 3 3 3 3 3 2 3 2 3 2 2 2 1 1 2 2 2 2 2 3 3 4 4 3 3 2 2 2 2 2 2 3 4 5 6 6 7
5 5 6 6 6 6 6 6 5 5 4 4 4 4 3 3 3 3 3 3 2 2 2 2 1 2 2 2 2 2 2 3 3 4 4 4 3 2 2 2 2 2 2 3 4 5 6 7 7
6 6 6 6 7 6 6 6 6 6 5 5 5 5 4 4 3 3 3 3 3 3 2 2 2 2 2 2 2 2 2 3 3 4 4 4 3 3 3 2 2 2 3 3 4 4 5 7 8
6 6 6 7 7 7 6 6 6 7 6 6 6 6 5 4 4 3 3 3 3 4 3 3 2 2 2 2 2 2 2 3 3 4 4 4 4 4 4 3 3 2 2 3 3 4 5 7 8
7 7 7 7 7 7 7 7 7 7 7 7 6 6 6 5 5 4 4 4 4 4 4 4 3 3 2 1 1 2 2 3 3 4 4 4 4 4 3 3 3 3 2 2 2 3 5 6 7
8 8 7 8 7 7 7 7 7 7 7 7 7 6 6 6 6 5 5 5 5 4 5 4 4 4 3 1 1 2 2 3 4 4 4 4 5 4 3 3 3 2 2 2 2 2 4 6 7
7 7 7 8 8 8 7 7 7 8 8 8 7 7 6 6 7 6 6 5 5 5 5 5 5 4 3 2 1 2 2 3 4 4 4 5 5 4 3 3 2 1 0 1 1 2 3 5 6
7 7 8 8 8 8 8 8 8 8 8 8 8 7 6 6 6 7 7 6 6 6 6 6 5 4 3 3 2 2 2 3 3 3 4 4 4 4 3 2 1 1 1 0 0 1 2 4 6
8 8 8 8 8 7 7 8 8 8 8 8 8 8 7 7 7 7 7 7 7 6 6 6 6 5 4 4 3 2 2 2 2 3 3 4 4 4 3 2 2 1 1 1 1 0 1 3 5
8 9 9 8 8 7 8 8 8 8 8 7 7 8 7 7 7 7 8 7 7 6 6 6 6 5 4 4 3 2 2 2 2 2 3 4 4 3 3 3 2 2 2 2 1 1 0 2 4
9 9 9 9 8 8 9 9 9 9 8 8 8 8 7 7 7 7 8 7 7 6 6 5 5 5 4 4 3 3 2 2 2 2 3 3 3 3 3 3 3 3 3 2 2 2 1 2 3
9 9 9 8 8 9 9 9 9 9 9 9 9 8 8 8 8 8 7 8 8 7 7 6 6 5 5 4 4 3 2 2 2 2 2 2 3 3 3 3 2 2 2 3 2 2 2 2 2
8 9 9 9 9 9 8 8 9 9 9 9 9 8 8 8 8 8 8 8 8 8 8 7 7 6 5 4 4 3 2 2 2 1 1 2 2 2 3 3 3 3 3 3 2 2 2 1 1
7 8 9 9 8 8 8 8 8 9 9 9 9 9 9 9 8 7 8 8 8 8 8 8 7 6 5 5 4 4 3 2 2 1 1 2 2 2 3 2 2 3 3 3 3 3 2 1 0
8 9 9 8 8 8 9 9 9 10 9 9 10 10 9 9 8 8 8 8 9 9 9 8 8 7 6 5 4 4 3 2 2 1 1 1 2 2 3 2 2 2 3 2 3 3 2 2 1
8 9 9 8 7 8 8 8 9 9 9 9 10 10 10 9 8 8 8 9 8 9 8 8 8 7 6 6 4 4 3 2 2 1 0 1 2 2 3 3 2 2 2 2 2 2 1 1 1
9 9 8 8 8 8 8 8 8 9 9 9 10 10 10 10 9 8 9 9 8 9 8 8 8 7 6 6 5 4 3 2 2 2 1 0 1 2 3 3 3 3 2 2 2 1 1 1 1
9 9 8 8 8 7 7 7 7 8 9 10 10 10 10 10 9 9 9 9 9 9 9 9 9 7 6 6 5 5 4 4 4 3 2 1 0 2 2 2 3 3 3 2 2 2 1 1 2
9 8 8 8 8 8 7 7 7 7 7 8 9 9 10 10 10 9 9 9 10 10 10 9 9 8 8 8 6 6 5 5 5 4 3 3 2 1 1 1 2 2 2 3 3 2 2 2 2
9 9 9 9 9 8 8 7 7 7 7 7 8 8 8 9 9 9 9 9 10 10 10 10 9 8 8 8 8 6 6 6 6 5 4 4 3 2 1 1 1 1 2 2 3 2 2 2 2
9 9 9 9 9 9 8 7 8 8 7 7 7 7 7 8 8 9 9 9 10 10 10 10 10 9 8 8 8 7 7 6 6 5 5 4 4 3 2 2 1 1 1 1 2 2 3 2 2
10 9 9 9 9 9 9 8 8 7 7 7 7 7 7 7 8 8 8 9 9 10 10 10 9 9 9 9 9 8 7 6 6 6 6 5 5 5 5 4 4 3 3 3 3 3 4 4 4
10 10 9 9 9 9 9 8 7 7 7 6 7 6 7 7 8 8 8 8 8 9 9 10 9 9 8 8 8 8 7 7 6 7 7 6 6 6 6 6 6 5 5 5 5 5 6 6 6
12 11 10 10 10 10 10 9 8 7 7 7 6 6 6 7 8 8 8 8 8 8 9 9 9 9 9 8 8 8 8 8 7 7 7 7 7 7 7 7 7 7 7 7 7 7 7 8 8
Wind_Direction
353 351 347 348 347 346 341 335 333 335 322 315 352 355 186 169 151 144 96 78 86 100 79 83 81 59 43 38 30 24 25 25 26 24 21 23 32 23 235 198 208 222 224 217 214 209 210 210 207
339 338 327 336 343 328 320 313 308 308 298 287 301 341 198 185 156 135 45 34 73 79 66 85 66 37 25 21 12 9 11 14 17 15 12 7 355 325 271 256 238 234 233 229 218 212 213 214 213
318 319 319 330 331 317 314 301 298 310 310 301 288 272 253 208 234 255 325 342 46 93 60 29 37 7 8 6 356 6 17 20 21 19 14 2 348 320 282 266 250 238 234 231 219 216 217 219 219
302 306 303 308 312 310 304 299 294 301 316 315 287 287 266 247 249 240 249 296 169 193 72 20 18 358 350 353 360 8 15 13 18 22 12 1 347 326 291 267 252 240 237 234 229 224 223 223 221
294 295 296 296 307 309 303 301 293 271 286 302 295 285 272 245 248 246 236 228 217 233 227 297 348 348 341 348 354 1 2 6 12 12 3 351 341 328 305 273 250 240 240 239 237 228 226 224 222
290 291 298 295 297 304 306 300 291 280 275 291 291 280 263 256 247 245 229 231 248 260 232 279 313 331 340 342 350 353 359 3 3 359 352 346 338 324 303 271 250 252 247 242 236 227 227 227 225
281 288 291 294 292 295 296 293 289 288 281 282 283 279 269 263 257 244 228 237 243 253 256 282 297 314 340 344 348 350 2 355 353 355 350 344 340 329 308 282 266 264 256 248 240 232 228 226 223
280 282 284 289 290 289 290 284 280 279 274 269 272 269 259 262 257 245 235 229 229 245 261 266 277 298 314 328 340 346 355 356 355 355 351 346 340 331 316 301 285 272 260 253 246 238 232 227 222
275 279 280 284 285 285 283 279 274 274 274 269 274 271 260 257 252 251 241 231 229 244 265 267 267 284 294 301 321 333 335 340 347 349 351 351 349 340 330 311 293 285 270 259 252 243 231 225 222
271 277 280 279 281 282 279 273 267 267 274 273 275 273 264 253 248 251 245 240 240 250 254 250 243 268 272 297 321 334 336 337 341 343 347 350 344 336 329 314 300 290 273 261 248 237 225 220 218
270 273 277 279 276 276 274 268 266 267 271 267 270 270 262 252 248 251 254 243 242 244 243 234 238 245 251 301 340 339 328 328 335 340 342 343 339 331 325 313 304 293 280 263 249 231 220 216 214
276 273 276 279 276 274 271 265 261 265 268 268 268 267 258 248 248 252 254 249 247 246 247 239 234 233 233 254 326 330 320 321 331 337 340 341 341 337 327 313 308 299 280 262 249 228 217 213 212
278 277 276 276 273 272 268 261 258 265 270 266 266 263 262 251 252 251 251 250 249 248 245 235 231 225 219 218 265 305 309 317 335 341 341 342 346 347 337 322 335 349 314 263 236 228 215 211 211
277 277 278 276 272 270 265 257 255 260 264 262 262 263 264 262 257 252 248 249 253 247 244 235 229 225 221 222 258 293 302 313 337 344 349 347 350 355 358 360 4 33 28 60 259 230 213 213 209
277 281 282 279 277 271 268 261 258 257 255 262 261 261 260 259 259 255 251 247 245 242 241 234 232 225 223 230 247 278 306 309 326 345 358 357 357 2 9 21 36 54 61 62 350 296 221 210 203
279 282 284 279 275 271 270 267 264 259 258 262 262 260 256 253 253 250 244 235 238 235 232 230 227 225 227 239 248 266 288 296 320 336 351 356 359 7 19 33 51 59 59 54 52 44 180 201 190
281 282 282 277 272 272 269 265 265 263 262 256 257 255 252 255 254 249 239 233 234 233 234 231 227 225 223 232 236 248 276 283 307 337 351 353 358 10 21 35 54 56 58 53 47 63 89 150 167
279 278 276 275 273 272 269 265 267 264 261 255 252 250 250 257 257 250 242 237 235 236 239 236 230 221 219 224 221 226 257 271 290 329 351 359 7 14 22 28 40 37 36 32 36 65 89 126 158
273 272 272 275 274 267 262 264 271 265 258 249 247 245 245 251 255 255 247 236 235 237 239 234 227 222 220 216 216 222 240 269 278 296 358 0 5 18 24 22 20 18 25 28 40 63 82 114 156
279 276 275 276 273 261 258 261 267 264 259 252 246 242 242 251 255 255 247 238 235 233 232 227 225 221 214 214 223 232 240 255 271 284 25 17 5 12 22 14 10 21 25 32 48 62 66 74 87
279 278 275 276 273 263 262 263 263 257 258 251 247 241 240 246 252 255 246 234 233 231 227 223 221 221 217 214 224 239 248 245 245 261 85 41 12 14 20 19 18 27 30 41 56 62 63 50 33
276 274 269 269 274 271 266 263 261 259 256 249 246 241 240 245 250 249 240 234 231 224 219 222 223 221 220 212 215 232 243 242 224 206 154 67 32 27 31 42 41 31 36 53 48 53 51 36 24
274 269 265 267 273 277 272 263 258 260 254 251 247 246 245 248 248 244 235 230 227 223 222 222 221 219 218 216 216 227 234 230 214 210 214 106 57 40 35 43 47 43 45 44 38 48 46 37 10
270 265 263 269 275 277 271 268 262 261 257 254 248 248 247 245 241 239 238 232 229 229 227 228 223 220 221 221 218 228 231 224 216 214 211 208 92 43 38 43 48 49 47 44 42 39 38 25 355
265 263 265 268 274 275 268 267 262 262 256 253 246 248 246 242 241 240 236 231 230 231 229 227 223 219 223 223 219 223 224 219 217 218 222 227 230 310 12 32 42 50 49 44 36 29 28 17 5
264 259 261 262 269 272 266 267 263 266 260 255 250 252 243 240 242 240 236 235 232 229 225 224 223 223 228 229 221 223 222 225 223 224 228 229 235 257 296 333 2 22 31 37 35 33 21 15 9
261 257 255 255 260 263 263 266 263 265 262 251 250 250 241 242 242 237 236 238 235 227 224 222 224 223 228 229 223 223 227 229 228 232 232 235 238 246 259 278 285 293 319 346 2 9 1 358 351
258 256 252 253 256 261 264 263 262 265 257 250 250 248 241 241 238 234 236 236 233 227 226 224 224 224 230 233 225 222 224 225 230 233 237 243 249 253 256 268 277 280 288 305 312 324 326 324 324
257 254 251 252 253 252 256 260 256 255 253 253 247 245 241 239 236 233 235 230 227 227 228 227 226 225 226 227 219 221 226 230 236 238 240 245 252 255 254 263 277 278 280 288 299 306 309 309 310
253 252 251 252 252 249 253 259 253 251 253 253 248 249 246 242 237 235 233 229 228 229 229 224 224 224 224 223 224 229 234 236 238 241 244 249 255 259 262 265 274 277 277 281 287 291 294 299 302
Height
5903 5902 5902 5902 5903 5903 5902 5901 5901 5900 5900 5899 5898 5898 5898 5897 5898 5900 5897 5895 5894 5894 5893 5892 5892 5892 5891 5890 5890 5889 5888 5888 5887 5886 5885 5885 5885 5884 5884 5884 5883 5883 5883 5883 5883 5884 5884 5885 5885
5902 5902 5902 5902 5902 5902 5902 5901 5900 5900 5899 5898 5898 5898 5897 5897 5897 5897 5895 5895 5894 5894 5893 5893 5892 5891 5891 5890 5890 5889 5888 5887 5886 5886 5885 5884 5884 5884 5883 5883 5883 5882 5882 5882 5883 5883 5883 5884 5884
5902 5902 5903 5902 5902 5902 5901 5900 5899 5899 5898 5898 5898 5897 5897 5896 5896 5896 5895 5894 5894 5893 5893 5892 5892 5891 5891 5890 5889 5889 5888 5887 5886 5885 5885 5884 5883 5883 5882 5882 5882 5882 5881 5882 5882 5882 5882 5883 5884
5901 5902 5902 5902 5901 5901 5900 5899 5898 5898 5898 5897 5897 5897 5896 5896 5895 5895 5894 5894 5894 5893 5893 5892 5892 5891 5891 5890 5889 5889 5888 5887 5886 5885 5884 5883 5883 5882 5882 5881 5881 5881 5881 5881 5881 5881 5881 5882 5882
5901 5901 5901 5901 5900 5900 5899 5898 5898 5897 5897 5897 5896 5896 5895 5895 5894 5894 5894 5893 5893 5893 5892 5892 5891 5891 5891 5890 5889 5888 5888 5887 5886 5885 5884 5883 5882 5881 5881 5880 5880 5880 5880 5879 5879 5880 5880 5880 5881
5900 5900 5901 5900 5899 5899 5898 5898 5897 5897 5896 5896 5896 5895 5895 5894 5894 5893 5893 5893 5892 5892 5892 5891 5891 5891 5890 5890 5889 5888 5887 5887 5886 5885 5884 5883 5882 5881 5880 5879 5879 5879 5878 5878 5878 5878 5879 5879 5880
5900 5899 5899 5899 5898 5898 5897 5897 5896 5896 5896 5896 5895 5895 5894 5894 5893 5892 5892 5892 5892 5892 5892 5891 5891 5890 5890 5889 5888 5888 5887 5886 5886 5885 5883 5882 5881 5880 5879 5879 5878 5878 5877 5877 5877 5877 5877 5878 5878
5898 5899 5897 5897 5897 5897 5896 5895 5895 5895 5895 5895 5894 5894 5893 5893 5892 5892 5892 5892 5892 5892 5891 5891 5891 5890 5890 5889 5888 5888 5887 5886 5885 5884 5883 5882 5881 5880 5879 5878 5878 5877 5876 5876 5876 5876 5876 5877 5877
5896 5897 5896 5896 5895 5895 5895 5894 5894 5894 5893 5893 5893 5893 5893 5892 5891 5891 5891 5891 5891 5891 5891 5891 5890 5890 5889 5889 5888 5887 5887 5886 5885 5884 5883 5882 5881 5880 5878 5878 5877 5876 5876 5875 5875 5875 5875 5875 5876
5895 5895 5894 5894 5894 5893 5893 5893 5893 5892 5892 5892 5892 5891 5891 5891 5891 5891 5891 5891 5890 5890 5890 5890 5890 5890 5889 5889 5888 5887 5886 5886 5885 5884 5883 5881 5880 5879 5878 5877 5876 5875 5875 5874 5874 5874 5874 5874 5875
5892 5892 5892 5892 5892 5891 5891 5891 5891 5891 5891 5890 5890 5890 5890 5890 5890 5890 5890 5890 5890 5890 5890 5890 5889 5889 5889 5888 5888 5887 5886 5885 5884 5883 5882 5881 5880 5878 5877 5876 5875 5874 5874 5873 5873 5873 5873 5873 5873
5890 5890 5890 5890 5889 5889 5889 5889 5889 5889 5890 5889 5889 5889 5889 5889 5889 5889 5889 5889 5889 5889 5889 5889 5889 5888 5888 5888 5888 5887 5886 5885 5884 5883 5882 5881 5879 5878 5877 5875 5874 5874 5873 5872 5872 5872 5872 5872 5872
5889 5888 5888 5888 5887 5887 5888 5888 5888 5887 5888 5887 5887 5887 5887 5887 5888 5888 5888 5888 5888 5888 5888 5888 5888 5888 5888 5887 5887 5887 5886 5885 5884 5883 5881 5880 5879 5878 5876 5875 5874 5873 5872 5872 5871 5871 5871 5871 5871
5887 5886 5886 5886 5886 5886 5886 5886 5886 5886 5886 5886 5886 5886 5886 5886 5886 5886 5887 5887 5887 5887 5887 5887 5887 5887 5887 5887 5887 5887 5886 5885 5884 5883 5881 5880 5879 5877 5876 5875 5874 5873 5872 5872 5871 5870 5870 5870 5871
5885 5885 5885 5884 5884 5884 5884 5884 5884 5884 5884 5884 5884 5884 5884 5884 5885 5885 5885 5885 5886 5886 5886 5886 5886 5887 5887 5887 5887 5886 5886 5885 5884 5883 5881 5880 5879 5877 5876 5875 5874 5873 5872 5872 5871 5870 5870 5870 5870
5883 5883 5883 5883 5882 5882 5884 5883 5882 5882 5882 5882 5882 5883 5883 5883 5883 5883 5884 5884 5884 5885 5885 5885 5885 5886 5886 5886 5886 5886 5885 5885 5884 5882 5881 5880 5879 5878 5877 5875 5875 5874 5873 5872 5871 5870 5870 5869 5870
5881 5881 5881 5881 5880 5881 5881 5881 5880 5880 5880 5880 5881 5881 5881 5881 5882 5882 5882 5883 5883 5883 5884 5884 5885 5885 5885 5885 5885 5885 5885 5884 5883 5882 5881 5880 5879 5878 5877 5876 5875 5874 5873 5873 5872 5871 5870 5870 5870
5880 5879 5879 5879 5878 5879 5879 5879 5878 5878 5878 5879 5879 5879 5880 5880 5880 5881 5881 5881 5882 5882 5883 5884 5884 5884 5884 5884 5885 5885 5884 5884 5883 5882 5881 5880 5879 5878 5877 5876 5875 5875 5874 5873 5872 5872 5871 5871 5871
5877 5877 5877 5877 5876 5876 5876 5877 5877 5876 5876 5876 5877 5878 5878 5878 5879 5879 5879 5880 5881 5881 5882 5882 5883 5883 5883 5884 5884 5884 5884 5883 5883 5882 5881 5880 5879 5879 5878 5877 5876 5875 5874 5874 5873 5872 5872 5872 5871
5875 5875 5875 5874 5874 5874 5874 5875 5875 5874 5874 5875 5875 5876 5876 5877 5877 5877 5878 5878 5879 5880 5880 5881 5882 5882 5883 5883 5883 5883 5883 5883 5882 5882 5881 5880 5880 5879 5878 5877 5876 5876 5875 5874 5874 5873 5873 5872 5872
5872 5873 5872 5872 5872 5872 5873 5873 5873 5873 5872 5873 5873 5874 5874 5875 5875 5876 5876 5876 5877 5878 5879 5880 5880 5881 5882 5882 5882 5883 5883 5882 5882 5882 5881 5881 5880 5879 5878 5877 5877 5876 5875 5875 5874 5874 5873 5873 5872
5870 5870 5870 5870 5870 5870 5871 5871 5871 5870 5871 5871 5871 5872 5873 5873 5874 5874 5874 5875 5876 5877 5878 5878 5879 5880 5881 5881 5882 5882 5882 5882 5882 5882 5881 5881 5880 5879 5878 5878 5877 5876 5876 5875 5875 5874 5874 5873 5873
5868 5868 5868 5868 5868 5868 5869 5869 5870 5869 5869 5869 5869 5870 5871 5871 5872 5872 5873 5874 5874 5875 5876 5877 5878 5879 5880 5880 5881 5881 5882 5882 5882 5882 5881 5881 5880 5880 5879 5878 5877 5877 5876 5876 5875 5874 5874 5873 5873
5866 5866 5866 5866 5866 5867 5867 5867 5868 5867 5867 5867 5867 5868 5868 5869 5870 5870 5871 5872 5873 5874 5875 5876 5877 5877 5878 5879 5880 5880 5881 5881 5881 5881 5881 5881 5880 5880 5879 5878 5878 5877 5877 5876 5876 5875 5874 5873 5873
5864 5865 5865 5865 5865 5865 5865 5865 5866 5865 5865 5865 5865 5866 5866 5867 5867 5868 5869 5870 5871 5872 5873 5874 5875 5876 5877 5878 5879 5879 5880 5880 5881 5881 5881 5881 5880 5880 5879 5879 5878 5878 5877 5876 5876 5875 5874 5873 5873
5861 5862 5863 5864 5863 5863 5863 5863 5864 5863 5863 5863 5863 5863 5864 5864 5865 5866 5867 5868 5869 5870 5871 5873 5874 5875 5876 5876 5877 5878 5878 5879 5880 5880 5880 5880 5880 5880 5879 5879 5878 5878 5877 5877 5876 5875 5874 5874 5873
5858 5859 5860 5860 5860 5861 5861 5861 5861 5861 5860 5861 5861 5861 5862 5862 5863 5864 5865 5866 5867 5868 5870 5871 5872 5873 5874 5875 5876 5877 5877 5878 5878 5879 5879 5879 5879 5879 5879 5879 5878 5878 5877 5877 5876 5875 5874 5873 5873
5856 5856 5857 5858 5858 5858 5859 5859 5859 5858 5858 5859 5859 5859 5860 5860 5861 5862 5863 5864 5865 5866 5868 5869 5870 5871 5872 5873 5874 5875 5876 5877 5877 5878 5878 5878 5878 5878 5878 5878 5878 5877 5877 5876 5876 5875 5874 5873 5872
5854 5854 5854 5855 5856 5857 5857 5859 5857 5857 5857 5857 5857 5857 5858 5859 5859 5860 5861 5862 5863 5865 5866 5867 5869 5870 5871 5872 5873 5874 5875 5875 5876 5877 5877 5877 5877 5877 5877 5877 5877 5876 5876 5875 5875 5874 5873 5872 5871
5850 5851 5852 5853 5853 5854 5854 5858 5855 5855 5855 5855 5855 5856 5856 5857 5857 5858 5859 5860 5862 5863 5864 5865 5867 5868 5869 5870 5871 5872 5873 5874 5874 5875 5875 5875 5875 5876 5875 5875 5875 5875 5874 5874 5873 5872 5872 5871 5870